Theta_e
327 328 331 331 331 330 332 333 333 333 334 335 334 336 336 336 336 336 335 335 336 336 336 334 335 336 337 335 333 332 333 332 333 335 334 333 332 332 333 336 335 334 333 333 333 332 332 333 333 335 337 336 336 341 342 341 342 342 341 339 339 339 338 334 330 330 338 343 340 334 338 340 337 338 336 339 339 339 332 337 330 332 329 326 322
324 326 329 328 326 329 330 332 332 332 332 333 333 333 335 335 336 337 335 336 336 333 332 335 336 335 334 335 334 333 332 332 332 333 334 334 334 335 335 336 334 333 332 331 331 332 331 331 333 333 335 334 335 339 341 341 340 339 340 339 337 337 340 336 333 329 327 332 333 336 340 337 334 337 337 335 335 335 333 337 338 339 330 326 324
325 327 328 329 327 328 330 330 331 331 330 331 331 331 332 333 334 333 333 333 334 333 334 334 332 332 333 334 334 334 334 332 333 332 331 331 332 333 334 334 334 333 331 330 330 330 330 331 331 332 335 333 334 338 340 339 339 336 334 336 335 339 341 338 334 329 329 330 336 333 335 337 334 334 335 335 335 336 331 328 326 328 334 329 326
321 322 323 326 328 327 328 330 329 330 329 330 329 330 331 333 332 332 331 333 331 336 333 331 333 333 333 332 333 333 333 336 333 331 331 329 329 330 332 333 334 334 333 331 331 330 329 330 331 332 333 333 334 338 341 340 339 338 338 337 339 337 339 337 338 333 332 330 332 332 335 333 336 338 338 336 335 330 330 329 327 326 328 328 326
322 320 324 323 328 330 327 327 328 328 328 330 329 329 330 330 331 328 330 329 328 329 330 330 330 330 331 331 332 332 333 333 333 331 331 331 329 327 329 331 331 331 332 333 334 331 330 329 331 331 332 334 337 339 340 337 338 338 338 337 339 340 337 337 336 334 332 327 329 332 333 334 334 334 332 331 332 329 328 324 323 323 324 324 327
322 325 326 324 326 327 328 328 327 328 327 328 328 328 329 328 328 330 327 326 326 328 327 327 327 326 326 326 328 329 331 332 333 332 331 331 329 330 330 329 329 329 331 333 333 332 331 329 331 334 331 333 333 337 338 338 335 338 337 338 336 336 334 334 334 331 330 329 326 326 331 331 331 335 333 328 327 327 324 322 323 324 324 323 324
328 328 321 325 325 326 326 326 326 326 327 327 328 327 327 328 326 325 326 324 324 324 324 323 324 325 325 325 323 323 324 326 330 331 331 330 330 329 329 329 330 332 331 331 332 332 332 333 331 333 332 331 331 329 330 330 334 336 336 336 335 333 330 330 331 331 329 328 328 331 329 331 331 331 329 331 327 320 319 318 319 322 324 321 322
323 321 323 325 325 324 327 326 325 326 326 326 326 327 326 326 325 326 325 324 323 322 322 322 323 323 322 321 320 320 320 322 321 318 317 320 330 332 329 329 329 330 331 331 332 332 333 333 332 334 333 332 334 335 334 332 334 332 335 335 334 332 331 331 329 329 328 327 327 327 330 327 327 329 331 322 319 318 320 319 317 317 320 323 320
321 321 323 323 322 325 324 322 324 325 324 324 326 324 324 327 325 325 324 325 324 322 321 321 320 320 319 318 317 317 318 318 317 312 310 315 322 328 331 329 330 328 327 328 331 330 330 333 332 330 330 328 325 327 327 331 332 331 334 333 331 330 330 330 330 327 327 328 328 327 325 325 323 321 319 317 315 315 319 318 317 319 318 319 318
319 319 318 320 324 319 323 324 323 324 323 323 325 327 322 324 325 324 322 323 323 322 320 320 319 318 317 316 315 315 314 313 311 304 302 308 316 323 329 333 334 330 330 330 328 328 327 324 326 325 320 318 315 310 308 309 315 327 332 332 331 330 329 328 328 327 327 325 324 325 323 319 320 320 318 318 320 318 318 316 314 317 316 317 314
319 320 317 318 319 319 320 320 322 319 322 322 320 320 321 323 322 323 323 324 323 321 320 318 318 317 316 315 313 313 312 311 302 296 297 298 311 321 327 331 332 330 330 329 327 324 322 320 319 319 316 313 310 305 304 303 304 304 305 309 318 329 330 329 328 329 327 326 325 323 322 318 319 318 316 317 316 316 315 315 317 315 313 311 312
318 318 317 318 317 316 320 318 317 319 319 317 318 318 318 317 316 317 319 323 321 321 320 318 317 317 316 314 313 312 311 307 296 296 297 296 301 316 324 327 330 331 330 330 327 322 319 318 319 319 316 314 312 310 307 304 302 302 303 304 303 301 305 319 324 324 323 323 319 319 316 314 314 315 315 314 313 316 314 315 313 312 310 310 311
316 316 315 315 315 323 317 316 316 318 318 318 322 317 320 316 317 316 317 321 322 319 318 318 316 316 314 313 313 312 309 303 295 296 297 297 297 307 322 327 328 329 330 327 324 321 320 321 321 318 318 320 318 313 311 309 306 306 309 311 310 307 300 299 304 323 324 322 317 316 317 316 313 313 315 316 317 314 314 312 310 311 310 311 310
315 314 314 314 315 317 316 315 315 316 317 319 322 318 316 316 316 317 320 317 319 318 318 316 315 314 314 313 313 312 310 303 295 295 296 296 299 307 326 327 328 327 327 326 323 321 322 320 318 318 319 318 316 316 316 314 316 320 316 313 310 309 306 304 307 309 317 320 316 313 314 315 312 312 313 315 315 313 312 311 310 310 310 311 315
315 315 314 314 318 319 314 314 314 316 318 316 319 316 316 316 317 317 317 316 318 315 315 315 315 314 313 313 312 311 310 298 294 294 295 296 300 309 321 322 321 320 323 323 323 322 321 320 319 319 318 318 319 319 320 321 320 315 310 307 304 302 301 302 307 315 315 314 311 310 308 308 307 307 308 310 311 312 314 313 313 312 311 312 312
312 315 314 314 313 316 315 315 318 315 315 317 315 313 315 316 315 315 316 317 317 318 315 316 314 313 312 312 311 309 309 297 294 294 294 294 302 316 316 317 318 318 318 318 320 320 320 321 321 320 319 315 306 301 313 321 316 312 308 306 303 301 299 298 296 300 306 304 303 301 300 302 301 302 303 305 306 308 311 311 314 312 306 306 309
311 315 314 314 314 314 314 314 317 315 316 315 311 314 313 313 315 316 313 315 316 316 314 315 314 314 313 311 309 307 308 300 293 293 294 293 305 317 316 314 314 314 316 318 319 320 320 319 319 317 313 309 301 295 304 316 314 311 309 306 305 302 300 300 296 293 293 294 294 294 294 294 295 296 296 297 302 308 311 310 304 305 304 303 304
312 312 312 313 313 313 314 312 313 313 313 311 313 312 314 316 313 313 314 315 316 315 314 314 314 312 312 310 308 306 307 303 293 293 294 293 303 317 315 314 313 313 312 313 313 315 319 320 319 313 311 308 296 295 303 313 313 311 309 306 304 302 301 302 302 301 295 294 293 293 294 295 297 297 297 299 300 306 306 302 304 304 304 303 300
312 311 313 313 312 313 314 314 313 312 311 316 315 312 313 314 313 314 317 315 317 314 313 312 311 313 312 310 308 306 306 304 295 292 293 293 301 313 316 313 312 312 312 311 311 310 309 310 313 311 310 302 295 296 302 315 313 311 310 308 306 303 303 303 302 301 302 304 305 306 304 304 311 307 305 302 303 308 306 305 304 303 301 301 302
311 313 316 318 319 320 314 313 314 315 313 316 316 312 312 313 314 313 313 312 312 312 312 312 312 311 312 311 309 308 307 306 300 292 293 294 294 307 317 314 311 311 313 312 310 309 308 307 304 294 294 295 295 295 301 306 313 313 312 309 306 304 305 305 306 306 307 308 308 308 307 307 307 307 308 308 309 307 303 305 304 304 302 299 301
314 314 315 314 313 313 314 313 315 316 315 316 316 311 312 313 315 313 312 312 314 313 312 312 311 311 311 310 309 308 306 306 302 292 293 294 293 297 315 313 314 313 312 311 309 307 306 305 304 297 294 295 296 296 299 303 308 315 313 311 310 309 308 310 311 314 310 308 307 306 306 306 306 306 304 303 304 304 305 304 305 303 303 301 298
316 315 313 311 313 313 314 313 314 314 316 316 315 313 311 311 312 313 313 313 313 314 312 312 310 311 310 309 309 306 305 302 303 296 292 293 293 293 312 315 313 314 312 310 308 306 305 304 302 297 294 295 296 297 298 299 301 311 310 302 300 301 313 313 309 306 306 305 304 304 304 304 303 302 302 303 303 306 305 304 304 304 304 304 300
313 313 312 311 315 313 314 313 312 311 312 316 315 314 312 310 310 312 313 313 312 311 311 310 311 310 310 309 308 307 306 303 297 300 294 292 292 294 293 304 298 314 313 309 307 304 304 302 302 298 294 295 296 297 298 298 303 301 296 298 298 300 307 308 306 306 304 304 305 305 303 302 302 300 301 301 302 304 305 304 305 305 305 305 305
313 312 315 313 314 313 312 312 311 311 312 313 313 313 313 312 311 313 315 313 311 310 310 309 309 308 307 308 307 307 306 305 299 295 297 291 293 293 294 295 299 312 310 307 306 305 303 301 298 293 293 294 294 296 297 299 299 295 296 296 298 303 310 307 306 308 305 303 303 303 303 302 301 300 300 302 302 304 304 305 306 305 304 306 304
314 313 313 312 313 313 312 312 311 311 310 310 309 310 310 312 310 311 312 311 310 308 308 308 307 308 308 307 307 306 306 304 303 298 295 293 293 294 296 297 298 300 306 306 304 301 296 292 292 294 294 294 294 295 295 295 294 295 296 298 310 307 308 305 306 305 303 303 302 301 300 300 301 302 304 304 303 304 305 308 306 306 305 303 304
313 312 311 312 310 309 310 311 309 310 311 309 310 311 311 310 309 311 310 310 309 308 307 306 306 307 306 307 307 306 305 304 304 305 304 300 296 293 294 296 298 298 299 298 294 292 292 292 293 294 296 298 302 302 301 299 294 294 295 303 307 306 306 305 305 305 303 301 300 300 299 300 302 305 306 306 305 300 301 302 301 303 302 303 300
312 312 314 311 312 311 312 312 310 310 310 309 309 310 311 311 310 310 309 309 308 308 307 306 306 306 305 306 307 306 305 306 305 305 306 304 302 301 300 299 298 297 300 299 299 300 300 300 296 294 294 294 296 296 297 297 300 302 303 305 305 307 307 306 307 306 303 301 300 300 301 302 303 303 303 303 303 302 301 303 301 300 300 301 298
310 309 310 312 313 310 309 305 308 308 308 309 308 308 308 309 309 309 308 308 307 307 307 306 306 305 303 304 305 306 305 305 305 305 306 306 305 305 305 304 303 302 302 302 303 303 299 297 298 301 300 300 299 299 300 303 302 301 304 306 306 304 308 312 309 305 304 303 302 302 302 302 301 303 303 302 300 301 301 300 300 300 300 300 298
311 312 311 310 310 309 309 309 307 308 309 308 311 309 308 309 309 310 313 312 310 309 308 308 309 309 304 304 304 305 304 305 307 297 299 297 304 307 306 304 304 304 304 298 304 304 303 302 299 298 297 298 298 301 302 304 303 305 308 304 304 304 303 301 303 303 304 302 301 302 301 302 301 301 301 300 301 301 302 302 302 303 301 300 297
310 309 309 309 309 308 309 309 308 307 307 308 307 305 295 295 308 311 307 297 294 296 299 304 302 307 308 307 305 305 306 305 294 293 293 293 292 294 298 299 299 301 298 296 300 301 302 298 298 297 298 298 299 299 301 302 303 300 300 297 300 301 301 302 302 302 304 305 302 302 302 303 301 300 301 300 299 301 301 298 302 303 299 298 296
308 308 308 307 306 308 308 308 308 307 307 308 310 305 304 301 292 294 297 295 293 292 292 292 291 293 306 305 299 294 296 293 292 292 293 293 293 294 295 296 296 295 294 299 301 302 300 298 298 298 297 299 299 300 301 302 300 300 301 300 303 302 300 303 303 301 300 302 301 302 299 301 302 300 300 300 300 299 300 299 300 302 299 297 297
308 307 307 307 307 308 308 309 312 311 307 307 307 307 304 303 302 294 291 292 292 291 292 292 292 293 296 299 302 299 294 293 293 292 292 293 293 293 294 295 295 295 295 298 300 299 301 300 299 299 299 300 301 301 302 302 302 302 301 300 302 301 301 303 302 301 300 302 300 299 301 302 302 301 299 300 296 299 300 300 300 299 298 297 297
310 309 308 308 307 305 305 308 308 308 308 307 308 307 306 304 301 301 298 292 291 291 292 292 292 292 293 296 298 297 295 293 292 292 293 292 292 292 292 293 294 295 296 302 300 301 304 304 302 303 302 303 303 303 303 303 303 303 301 301 301 299 300 304 300 304 302 303 302 301 301 302 300 299 294 297 297 298 300 299 299 298 297 297 294
311 310 309 309 308 306 306 307 306 307 309 308 307 307 306 306 304 302 300 299 299 297 292 291 291 292 292 293 293 292 292 292 292 292 292 292 292 293 295 295 290 292 297 304 304 303 304 304 304 304 304 304 303 302 303 304 302 303 303 303 303 302 302 305 303 301 300 301 300 298 299 302 300 300 300 300 300 300 299 297 298 298 297 296 294
310 303 297 300 311 307 306 305 305 307 309 308 308 307 308 306 302 301 301 301 300 300 301 299 295 295 295 293 292 292 292 291 292 292 292 292 293 293 294 300 300 300 301 301 300 301 301 303 303 304 305 304 302 303 305 307 304 305 304 304 304 305 303 303 302 302 301 302 302 300 298 300 301 299 300 299 298 298 298 298 298 297 296 294 294
310 309 310 307 308 309 308 306 306 308 309 309 310 308 306 304 300 301 300 301 301 300 301 302 300 294 294 293 291 292 291 291 291 291 291 292 292 294 301 300 299 299 300 300 300 300 300 304 304 304 305 307 305 305 304 304 306 304 304 305 303 304 304 303 302 303 303 303 302 301 301 303 302 300 301 302 301 299 299 298 297 295 295 295 294
309 308 309 308 308 308 309 308 308 309 303 304 311 310 309 308 304 301 302 301 301 301 301 302 300 298 296 297 293 291 291 291 291 291 291 291 291 298 302 302 300 300 300 302 302 303 304 306 306 305 304 306 304 305 304 305 305 305 303 305 306 305 304 304 304 300 304 302 304 303 302 301 302 302 301 297 295 298 298 297 297 292 292 290 289
310 308 308 309 309 310 309 308 306 300 305 306 309 309 308 308 305 303 302 301 301 301 301 301 298 298 297 297 299 296 292 291 292 292 292 293 293 299 300 301 301 302 301 302 304 305 305 308 306 306 304 307 306 306 305 305 305 306 305 304 304 304 300 299 297 305 303 302 300 300 297 300 303 302 294 294 292 292 294 292 295 295 291 290 291
310 302 298 297 299 308 307 306 306 305 307 308 307 307 304 305 306 304 302 301 300 300 299 300 298 297 298 300 298 299 295 297 297 297 297 299 299 300 300 300 300 300 302 303 304 303 304 305 306 306 308 308 307 308 307 308 308 306 307 306 306 304 303 304 303 303 300 299 298 300 298 297 298 297 294 294 293 294 295 293 294 294 292 289 291
308 308 302 296 303 304 304 301 306 307 304 305 305 306 305 304 305 305 304 302 300 299 300 298 297 297 299 300 299 298 297 298 297 298 299 299 299 300 300 300 300 302 302 303 304 304 305 306 307 306 307 309 309 310 308 309 309 306 306 305 304 303 305 304 302 300 298 299 295 296 295 296 295 294 293 293 293 295 294 292 289 291 291 292 290
309 307 300 299 301 305 305 308 305 305 306 304 305 305 305 305 306 304 305 305 301 299 300 300 300 300 300 298 296 296 299 299 299 299 299 299 300 300 301 301 301 302 302 302 303 304 306 306 307 308 308 307 307 307 308 308 308 306 306 302 302 298 302 304 302 298 300 295 295 293 293 293 292 291 291 292 293 291 289 289 290 289 289 287 289
309 308 306 307 300 307 305 303 305 308 305 306 305 304 303 304 305 305 304 305 303 301 301 302 303 302 298 295 295 295 300 300 300 300 301 301 301 301 301 302 303 303 303 304 305 305 306 306 306 306 307 307 306 306 306 307 306 305 305 303 302 300 296 297 298 298 296 293 293 293 292 292 291 291 291 292 289 289 290 290 290 289 289 288 287
310 309 307 305 306 307 305 305 305 305 305 305 304 300 301 304 305 304 305 304 304 304 303 302 303 304 299 293 294 293 300 301 296 300 301 301 302 301 302 303 304 304 305 305 306 307 307 308 307 306 307 308 307 306 305 304 304 304 304 304 302 301 301 296 296 296 294 293 292 291 291 290 290 290 289 289 290 289 288 288 288 287 287 287 286
310 309 307 305 305 305 306 306 305 305 305 302 303 304 302 303 304 305 305 305 305 304 304 304 303 303 301 295 293 296 300 302 302 302 302 301 302 303 304 304 305 305 305 305 306 307 307 307 307 307 309 309 309 309 307 305 306 305 303 302 296 296 300 296 294 294 293 291 292 291 290 290 290 290 289 289 289 288 288 287 287 287 286 286 286
311 309 308 306 307 306 306 306 305 305 302 303 306 305 302 304 304 304 304 304 302 304 304 304 304 303 301 299 299 299 301 302 300 302 302 303 303 304 305 305 306 306 306 306 307 308 309 308 308 307 307 308 310 309 308 307 307 305 304 302 298 294 297 299 299 299 297 293 292 291 290 289 289 289 289 289 288 287 287 286 287 287 285 285 285
309 308 307 306 306 305 305 307 306 307 305 304 305 305 305 305 305 305 305 305 304 303 303 303 304 304 302 300 301 299 302 302 303 303 302 303 303 304 305 306 307 307 307 308 308 310 308 309 308 308 308 308 308 308 307 308 306 306 306 305 303 302 302 302 302 300 299 297 292 291 290 290 290 289 289 288 288 287 286 286 285 285 284 284 284
311 308 307 306 307 305 305 307 307 305 306 305 304 305 305 305 305 305 301 303 304 303 303 303 303 304 304 303 301 302 302 302 303 303 303 304 305 305 306 307 307 308 308 308 309 309 309 308 308 309 309 309 308 309 307 306 305 304 304 303 303 303 301 300 301 300 299 298 296 292 290 289 289 288 288 289 287 286 286 285 285 284 284 284 284
310 308 308 307 307 306 306 307 306 299 304 305 305 305 303 304 305 305 305 304 304 303 304 303 304 304 302 304 303 303 303 304 304 303 304 304 305 306 307 307 308 309 308 308 309 308 308 309 309 309 308 308 307 308 307 306 305 304 303 302 302 302 300 296 300 300 299 298 297 297 294 291 289 288 288 288 287 286 286 285 285 285 284 285 285
309 308 308 307 307 307 307 307 304 306 305 306 305 305 304 305 305 305 305 305 305 304 305 304 304 304 304 304 304 304 303 303 304 304 304 305 305 306 306 307 307 309 307 308 309 309 309 309 308 309 308 309 309 308 307 305 304 304 303 301 299 293 292 294 296 299 296 298 296 295 294 293 291 289 288 287 287 286 285 285 285 285 285 285 285
309 307 308 307 307 307 307 308 308 308 306 306 306 306 306 306 306 305 306 306 306 306 306 304 303 304 304 304 304 304 304 304 304 305 305 305 306 306 306 306 306 307 308 308 309 309 309 309 310 309 308 308 308 308 307 306 304 303 301 297 290 291 292 292 292 291 295 296 295 293 293 292 291 289 288 288 287 287 286 286 286 286 285 285 285
307 308 308 308 308 308 309 309 309 309 309 308 308 308 307 307 307 307 307 307 307 306 306 306 306 304 304 305 302 304 303 304 305 305 306 306 306 305 305 305 305 306 307 308 309 309 309 309 309 308 308 307 307 307 307 305 305 302 294 289 289 290 290 291 292 290 291 291 294 292 291 290 289 288 288 288 289 288 287 287 287 286 284 284 284
Wind_Speed
4 3 2 2 2 1 2 2 3 2 2 2 3 2 2 1 1 2 3 3 3 4 5 7 7 5 7 7 6 6 6 7 6 6 7 8 8 9 9 11 12 11 10 10 10 10 10 11 12 10 7 7 7 6 5 5 5 5 4 3 4 4 3 3 3 2 1 3 5 3 2 3 2 1 1 1 0 2 3 7 10 7 7 6 5
6 6 3 2 1 1 2 2 2 2 3 2 3 3 2 2 2 1 2 2 2 3 6 5 5 6 6 6 7 6 7 8 8 7 6 8 10 8 10 11 12 12 10 11 11 9 10 11 12 11 9 9 8 7 6 6 5 5 2 3 4 4 4 2 1 1 2 6 5 5 4 5 3 4 2 2 2 3 1 4 7 8 7 7 5
1 3 2 2 1 0 1 2 2 2 3 3 3 3 3 3 2 2 2 3 3 4 5 4 6 7 5 6 7 6 7 9 8 8 9 9 9 9 9 10 10 11 12 13 13 12 12 12 12 11 8 9 8 7 7 7 6 6 7 5 4 1 4 5 2 1 2 2 1 1 2 3 4 3 1 1 2 1 1 5 3 1 8 7 6
4 5 4 4 4 1 1 2 2 2 3 3 3 3 3 2 2 2 3 3 4 1 4 5 5 4 6 8 8 8 7 2 4 8 8 8 9 11 9 9 10 9 10 12 12 12 11 11 11 10 9 8 8 7 7 7 6 6 6 3 7 5 3 4 3 3 2 4 1 2 1 1 2 3 2 2 1 0 2 3 4 3 6 8 5
1 3 1 0 0 0 1 1 1 3 3 2 3 3 3 3 2 4 3 4 4 4 3 4 4 5 5 6 7 6 4 4 5 6 8 8 10 10 9 8 7 9 10 10 9 10 12 11 10 12 10 9 7 7 7 7 5 4 6 7 2 2 5 4 4 2 2 2 2 2 0 1 0 2 3 1 1 2 4 6 4 4 5 3 6
3 1 2 3 2 1 2 2 2 2 3 3 3 3 2 3 3 2 4 4 3 3 3 5 5 6 6 7 8 8 8 7 5 7 9 8 10 9 8 10 10 11 10 9 9 8 7 11 7 2 3 5 3 3 2 2 4 5 6 5 4 4 5 5 4 4 2 2 2 1 1 1 0 1 0 3 2 2 6 4 4 4 4 5 3
1 1 0 1 2 2 1 2 3 3 3 3 3 3 2 3 4 4 4 4 4 4 5 6 6 8 8 8 9 10 10 10 9 8 3 8 12 11 10 10 12 10 10 10 6 5 5 6 4 3 6 5 5 3 5 9 5 2 5 5 5 6 5 4 4 3 3 3 2 3 4 1 1 2 1 1 3 6 4 5 4 4 3 3 4
1 1 1 1 2 2 1 2 2 2 2 3 3 2 3 2 3 2 3 3 4 6 6 7 7 7 9 8 8 8 8 8 8 8 8 8 7 9 11 10 12 10 10 8 7 8 9 7 4 4 6 7 7 7 7 6 7 3 3 4 5 5 5 5 4 3 2 3 4 3 2 3 2 2 2 4 4 6 4 2 3 3 3 5 5
2 1 1 2 2 2 1 1 1 2 3 2 1 2 3 2 2 2 2 2 3 5 6 7 8 8 8 8 9 8 7 7 6 8 9 8 6 8 6 8 11 9 10 13 9 4 1 3 7 5 5 8 9 9 7 7 7 5 3 3 4 5 5 5 4 3 2 2 3 2 4 4 5 5 4 5 5 3 2 2 0 1 2 4 5
3 3 3 2 2 3 2 0 1 2 2 3 1 0 2 1 1 2 2 2 2 3 5 6 7 7 7 7 7 7 6 5 9 15 12 8 7 7 7 8 9 9 11 9 8 7 6 2 1 9 10 11 13 12 11 11 10 5 3 3 4 5 5 4 4 4 5 4 4 5 4 6 5 5 5 3 3 3 3 3 1 1 3 6 3
4 2 2 2 3 3 2 2 2 3 3 1 0 3 2 2 2 1 2 1 2 3 4 5 5 6 6 7 7 5 5 5 12 13 14 13 7 6 7 8 10 8 8 11 8 9 8 7 5 10 10 9 12 17 15 14 14 13 14 13 9 4 4 5 4 3 5 5 2 2 4 5 5 5 5 4 3 3 3 2 1 3 2 1 1
2 2 4 3 4 4 2 3 3 3 3 4 3 2 4 3 4 4 3 1 3 2 3 4 4 5 4 5 5 5 5 8 14 14 14 14 8 6 7 7 7 8 10 11 8 10 9 8 7 6 9 8 8 13 15 17 17 15 15 14 14 14 10 5 3 3 2 1 6 6 7 7 6 5 4 3 2 3 4 2 3 2 3 3 2
3 3 3 4 3 1 2 4 3 2 3 2 1 1 1 3 2 3 4 2 0 2 3 3 3 4 4 5 4 4 4 8 13 14 14 14 10 6 7 7 8 11 9 8 10 11 10 9 8 7 9 15 12 11 12 13 14 18 15 14 15 15 13 13 8 4 3 7 8 7 5 6 7 4 3 1 1 3 3 5 3 3 2 1 3
4 4 5 5 4 2 2 3 3 3 3 2 1 2 2 2 3 3 2 3 2 3 4 4 4 4 4 4 4 3 4 8 13 14 14 14 12 7 3 2 4 5 8 9 12 12 11 9 9 9 8 9 9 10 9 13 11 10 10 9 8 10 13 14 13 14 11 7 8 9 6 6 7 4 4 4 3 3 2 3 2 3 2 1 3
4 5 5 3 2 1 3 4 4 2 1 3 2 2 2 2 2 2 3 4 1 4 3 2 2 2 3 3 3 3 3 9 12 14 14 14 14 8 6 3 6 5 5 5 6 11 11 10 9 10 10 8 8 11 6 7 10 11 11 11 9 8 8 9 8 6 7 7 8 9 7 7 6 5 4 4 4 3 1 1 1 1 3 3 2
5 3 4 3 3 2 3 2 2 3 2 2 2 3 2 2 2 4 3 2 3 2 4 1 1 1 2 2 2 3 3 8 12 13 13 14 13 7 8 7 5 6 7 7 2 4 10 9 8 9 10 8 6 6 4 8 11 12 12 11 11 9 9 6 10 12 10 8 8 9 7 7 8 6 4 3 3 3 3 3 2 2 3 5 4
4 3 3 4 4 4 4 3 1 2 2 2 3 2 5 4 3 2 5 4 5 2 3 1 1 0 1 1 2 2 3 6 10 11 12 14 10 6 7 8 7 7 6 5 5 3 6 7 7 8 9 8 6 6 8 15 10 12 12 12 10 10 8 6 11 14 15 15 15 14 13 13 11 11 11 11 9 4 1 3 3 5 5 2 6
6 5 4 3 5 4 4 3 3 0 3 3 3 6 2 1 2 5 2 3 2 2 2 1 1 1 1 2 3 2 4 5 9 9 11 13 10 6 5 6 6 6 6 6 6 5 8 14 12 9 8 7 8 9 9 12 11 11 12 12 11 10 7 5 6 7 10 11 11 11 12 12 12 11 12 12 13 9 6 6 3 4 3 5 3
6 4 3 3 4 6 4 3 1 1 2 1 1 4 2 1 3 4 1 2 1 1 3 3 2 1 1 1 2 2 3 3 8 8 9 11 9 5 4 4 6 5 5 6 6 6 8 10 11 8 8 7 10 9 9 11 10 11 10 10 10 9 6 6 7 7 5 5 3 4 3 2 4 5 5 11 11 9 5 4 5 6 5 5 4
6 4 2 2 2 1 6 5 3 2 2 1 1 4 3 1 2 2 3 4 3 4 3 2 1 1 1 1 1 2 2 1 5 8 8 9 10 5 1 4 5 3 4 4 5 5 7 7 7 7 11 12 10 10 11 12 11 10 9 9 9 9 8 7 5 5 5 4 4 4 4 4 4 3 4 4 5 5 5 5 5 5 5 5 5
3 3 3 4 4 3 4 4 4 2 1 1 1 6 3 2 1 2 4 6 3 4 3 3 1 1 1 1 0 0 2 3 2 6 7 8 9 6 2 2 3 3 4 4 3 5 6 5 3 6 11 11 12 13 13 14 12 10 10 9 7 10 10 6 8 8 5 4 4 4 4 4 4 4 5 4 5 3 4 4 4 4 5 5 5
3 2 3 4 3 7 6 6 4 2 0 1 2 3 5 3 2 3 4 5 3 1 2 1 3 2 2 2 1 1 2 4 3 2 5 6 7 6 1 1 1 2 4 4 5 4 5 4 4 5 11 12 14 15 17 16 14 8 10 14 14 13 8 7 6 6 5 5 5 5 5 5 4 6 5 5 3 3 4 4 3 3 4 4 4
4 5 5 5 6 8 6 7 4 3 2 1 1 1 5 5 3 3 4 3 3 2 2 3 2 2 3 4 2 1 1 1 5 3 4 6 4 2 1 1 2 3 3 5 5 5 4 5 5 8 12 12 13 16 17 17 13 10 16 16 14 14 10 5 6 6 6 6 6 4 4 4 5 5 6 6 4 3 3 3 1 2 1 2 2
4 5 2 4 9 7 9 7 5 3 3 2 1 1 1 3 6 4 2 2 1 2 2 4 5 4 3 2 3 2 2 1 2 3 5 7 4 4 5 4 5 6 7 6 6 6 6 5 6 11 12 12 13 14 15 14 11 13 14 15 13 7 3 7 6 5 4 5 6 4 4 4 5 6 5 5 4 3 2 1 0 0 1 1 1
5 4 3 3 7 9 7 6 6 4 6 4 3 2 2 2 3 4 4 5 4 3 4 6 6 3 2 1 2 3 2 1 2 1 9 10 8 11 13 14 13 14 9 6 6 6 7 9 12 13 13 13 14 14 13 12 13 12 12 12 9 2 3 4 5 6 6 5 4 5 6 6 5 5 4 4 3 1 0 0 1 2 1 2 3
5 4 4 3 4 5 6 8 9 6 6 7 7 6 6 5 4 4 4 3 4 4 4 5 3 2 2 2 2 3 3 2 3 1 6 10 10 12 14 15 15 15 13 10 11 11 10 10 11 10 9 8 8 7 7 7 9 10 9 6 2 2 2 6 5 5 5 4 6 5 6 5 5 3 3 1 2 4 2 1 4 1 2 2 3
4 3 2 3 3 3 3 2 5 8 7 5 6 7 8 7 6 5 4 4 4 4 4 5 4 2 3 3 2 4 4 3 3 3 5 7 7 8 10 11 14 14 10 7 8 7 6 5 6 9 10 12 11 10 9 7 7 5 3 1 2 4 4 5 5 5 6 6 5 5 5 6 5 4 2 3 3 4 3 1 1 2 2 3 4
5 5 5 2 2 4 5 6 6 4 6 6 5 5 8 10 7 7 6 5 4 3 5 5 3 3 4 4 4 3 4 3 4 4 6 6 5 5 6 6 6 7 8 5 5 6 6 6 7 6 6 6 6 5 4 4 4 3 3 2 1 4 7 8 7 6 4 4 4 6 5 6 6 5 5 4 3 4 4 3 2 3 1 3 2
4 4 4 4 4 4 5 6 6 4 4 6 3 3 4 4 7 6 5 4 5 4 6 5 3 3 5 5 5 4 4 4 2 2 6 5 5 5 5 6 6 5 8 9 6 4 4 5 5 6 5 6 5 4 3 2 3 4 3 5 3 4 5 4 6 5 4 6 5 4 4 3 4 3 3 4 3 2 5 3 2 1 2 3 3
5 3 3 4 5 5 4 3 6 6 5 5 7 4 8 11 5 7 4 7 13 10 7 2 1 4 3 3 1 3 4 4 4 9 11 10 6 4 7 10 9 9 10 12 6 4 4 5 5 5 5 4 4 4 4 4 3 5 5 4 4 3 3 3 6 4 2 2 4 3 5 4 5 4 3 4 5 1 5 4 1 2 3 1 1
5 4 4 4 6 5 4 4 5 5 4 4 5 6 5 8 12 11 13 9 9 12 10 6 5 7 5 3 6 8 14 12 9 10 11 10 8 9 14 15 15 13 13 9 4 4 4 5 5 5 5 5 5 5 5 4 6 5 5 4 3 5 5 4 6 5 3 0 3 2 4 1 2 6 1 3 4 1 4 5 5 5 4 0 0
5 4 4 5 4 5 3 3 2 2 5 6 6 7 7 5 5 8 8 8 9 7 10 8 8 6 10 10 7 4 3 6 14 10 10 10 10 9 11 16 15 14 9 3 1 3 6 6 6 7 7 6 7 5 5 5 6 6 6 6 5 4 3 2 7 7 5 2 2 1 2 3 2 3 4 5 3 1 3 3 1 1 0 0 1
5 4 5 6 5 6 5 3 3 4 5 6 5 6 7 8 7 5 3 7 5 7 7 9 9 7 8 9 9 8 7 5 12 11 10 10 10 10 9 7 7 7 5 2 2 2 3 4 6 6 7 6 6 6 6 6 6 5 6 6 6 6 5 4 6 4 2 2 1 2 5 3 2 2 4 4 4 4 3 1 2 1 1 1 2
6 4 4 5 4 6 4 3 4 5 3 5 6 5 4 5 7 8 6 4 2 3 4 6 9 10 7 10 11 10 10 7 9 12 10 10 10 9 8 4 3 3 3 2 1 3 3 6 6 6 7 6 6 6 6 6 6 6 7 6 6 6 4 6 6 6 3 2 3 2 1 1 3 3 4 5 5 3 2 3 1 1 0 3 2
7 7 7 5 3 5 5 4 6 6 4 6 4 4 3 4 8 8 8 8 7 6 5 3 1 5 6 6 9 11 10 9 9 11 10 9 9 9 8 5 3 2 2 2 3 4 4 6 4 4 3 4 5 6 3 2 5 4 3 5 4 7 8 8 7 8 8 7 6 6 5 5 4 5 4 3 1 2 4 2 1 1 2 2 1
7 6 6 6 5 3 4 5 5 5 5 5 4 3 3 3 9 6 6 6 6 6 6 6 5 3 10 9 10 10 9 9 9 10 9 8 6 4 4 4 3 4 3 4 6 6 6 7 5 5 4 2 6 5 5 3 3 5 5 5 4 5 5 7 7 8 9 8 8 7 7 7 6 6 5 4 4 4 3 3 2 3 3 0 1
7 6 5 6 6 5 4 4 4 5 5 4 3 3 4 4 7 6 7 6 6 5 5 7 7 4 4 5 7 8 7 7 8 9 7 6 2 1 2 3 4 4 4 5 5 5 5 4 3 5 5 5 6 5 5 6 8 6 7 7 4 5 3 3 4 2 2 2 2 2 4 6 5 6 6 5 5 3 3 3 3 2 2 3 4
6 6 5 6 6 5 4 4 5 4 4 5 4 4 4 3 5 5 6 7 8 7 6 7 7 7 7 6 9 6 6 6 9 8 5 4 1 2 3 4 3 3 4 5 4 4 3 2 4 5 7 4 5 6 7 6 6 6 7 7 6 3 6 8 7 4 3 1 0 1 1 1 3 5 5 5 5 4 2 2 2 0 2 6 4
6 7 6 7 10 6 5 5 5 5 4 4 5 5 5 4 4 4 5 6 7 6 7 8 7 7 7 8 7 7 8 4 5 5 5 4 4 4 4 4 4 4 4 4 4 5 6 5 4 3 3 4 4 4 5 4 4 3 3 3 6 4 2 2 2 1 1 2 1 1 1 0 1 4 5 5 5 4 3 2 3 2 2 2 1
6 7 6 6 6 7 6 5 5 5 5 5 5 5 4 5 5 4 4 6 7 6 7 9 9 8 8 10 9 8 8 7 6 6 6 6 6 5 5 5 5 4 5 5 5 6 6 6 5 6 6 4 4 3 2 1 2 1 2 2 4 4 2 3 3 4 5 4 4 4 4 2 4 4 5 5 4 3 3 2 4 3 1 0 1
7 7 6 7 6 5 4 3 4 5 5 5 5 5 5 5 4 4 5 4 7 8 5 9 9 10 10 13 16 14 9 8 7 7 7 7 7 7 6 6 6 6 6 7 6 6 6 8 7 4 5 5 5 4 2 0 0 1 2 2 4 3 2 3 4 3 4 5 4 4 4 5 6 6 4 2 5 5 4 3 1 1 2 3 2
8 7 9 9 6 6 5 6 5 3 5 5 6 6 6 5 5 5 5 5 4 6 6 7 9 10 13 22 21 20 11 7 7 8 7 7 7 7 7 7 7 7 7 7 8 8 10 10 7 5 4 5 6 5 4 4 3 2 2 2 3 3 2 2 2 2 4 5 5 4 3 4 5 5 6 6 5 3 2 1 1 1 1 0 0
7 6 9 10 9 9 8 7 7 6 6 7 6 5 5 5 5 5 5 4 5 5 5 6 6 8 13 21 20 20 10 9 8 8 8 8 7 7 8 8 8 8 8 8 8 8 7 5 5 5 5 5 6 6 6 6 5 4 4 2 2 3 5 4 4 4 5 5 5 5 5 5 5 5 4 4 4 4 3 2 2 1 1 1 2
7 6 9 10 10 10 10 8 7 7 7 7 9 7 6 6 5 5 6 6 5 5 5 5 6 5 10 15 16 14 11 9 9 9 9 8 8 8 8 8 8 8 8 9 9 8 7 5 5 5 5 6 5 5 6 6 6 6 7 5 3 3 4 5 5 5 5 6 6 6 6 5 3 2 3 3 4 4 4 3 3 3 2 2 3
7 6 9 9 9 9 9 9 8 7 8 4 7 8 8 7 6 6 6 6 6 6 5 5 5 5 9 7 10 13 12 11 10 10 10 9 9 9 9 9 9 10 10 10 9 9 7 6 5 6 5 5 5 4 6 4 5 6 6 7 5 5 4 5 6 7 6 6 6 6 7 5 4 3 2 2 3 3 3 4 4 5 4 3 1
8 7 8 10 9 9 9 9 9 7 8 9 7 7 8 8 7 7 6 6 6 6 7 6 5 5 6 13 12 12 12 11 9 10 9 9 9 10 9 10 10 11 11 10 8 7 6 5 6 6 6 5 5 5 6 5 5 5 5 5 6 6 6 6 6 7 7 7 7 6 5 5 5 5 5 4 3 3 2 1 1 2 1 1 1
9 8 8 9 10 10 9 9 8 9 8 7 7 9 7 7 7 7 7 7 7 6 6 6 7 7 5 10 11 11 11 10 9 9 9 9 9 10 10 10 11 11 11 10 8 7 6 6 6 6 6 5 5 6 5 6 6 5 4 5 5 5 6 6 6 6 6 7 7 5 6 6 6 6 5 5 3 2 2 3 3 3 3 3 3
8 9 9 8 9 10 10 10 9 9 8 8 9 9 7 6 7 7 7 7 7 6 6 6 7 7 7 6 10 11 11 11 10 9 9 9 10 9 8 7 4 6 8 8 8 7 6 6 6 6 6 6 6 6 6 6 5 6 6 5 6 6 8 9 6 7 6 6 5 5 5 5 4 5 6 5 4 5 5 5 4 4 4 4 5
9 7 7 8 9 10 9 9 8 8 9 9 8 8 8 8 8 8 8 8 8 8 7 7 7 7 7 7 6 9 11 11 11 10 9 8 9 9 9 9 7 5 5 6 6 7 7 7 7 7 7 7 6 7 7 6 6 6 6 5 8 12 14 14 9 7 9 8 6 6 5 5 5 4 4 4 4 4 3 2 1 1 2 2 1
9 7 8 9 8 7 8 7 8 9 9 9 9 9 9 9 8 8 8 9 8 8 8 8 8 8 8 8 8 8 8 10 11 11 11 10 9 8 9 10 10 9 6 5 5 7 7 7 7 7 8 7 7 7 7 7 6 7 6 7 10 15 15 15 13 14 11 6 7 6 6 6 5 5 4 4 5 4 4 4 4 3 3 3 3
10 10 8 9 10 9 9 9 9 9 9 10 10 9 9 9 9 9 9 9 9 9 9 9 9 9 8 8 8 8 9 9 8 9 10 10 10 10 10 10 11 11 9 6 5 6 7 7 7 8 7 7 7 8 7 7 7 6 9 13 14 14 15 14 12 13 14 9 6 7 5 6 5 6 5 5 6 5 6 6 5 5 4 3 2
Wind_Direction
222 216 206 193 213 273 336 321 304 294 299 315 309 305 324 81 251 290 308 314 312 305 285 274 263 229 209 221 212 203 203 208 208 216 216 221 217 226 227 218 218 219 219 223 226 230 232 231 234 227 212 214 215 199 197 202 196 205 227 215 193 189 187 204 212 230 19 30 39 94 234 167 185 263 174 221 119 197 212 122 148 158 136 127 129
220 198 168 117 226 294 278 298 297 297 302 308 303 313 336 341 336 292 318 295 307 294 305 319 316 306 290 245 216 216 214 209 194 193 212 223 224 217 226 222 220 224 219 225 229 231 231 233 233 233 215 213 214 204 196 206 189 193 248 242 203 198 188 179 229 71 28 17 308 350 356 349 139 278 138 150 209 337 256 162 163 165 134 129 138
78 51 69 111 82 30 298 293 305 302 301 299 298 317 346 347 341 347 341 348 342 340 315 314 316 313 300 289 276 234 216 222 212 192 200 211 223 224 221 228 228 224 224 224 226 230 232 228 228 228 219 211 212 204 195 201 182 170 190 231 274 227 101 85 102 98 152 194 56 63 21 336 19 279 186 115 23 243 341 61 24 37 132 133 150
216 196 184 188 170 173 356 313 305 313 303 309 309 326 328 323 342 339 356 353 334 51 294 312 294 299 307 312 307 306 296 349 225 227 226 205 206 221 226 225 233 238 236 234 231 234 239 230 226 230 221 216 207 197 195 198 186 192 144 128 209 224 125 132 137 139 195 147 180 105 209 173 196 303 92 45 213 69 342 88 55 354 105 147 147
232 314 326 104 51 182 223 236 286 302 297 284 295 307 313 328 329 347 1 352 9 346 347 346 335 329 321 301 293 293 288 250 179 207 227 229 237 227 220 227 229 242 242 245 254 251 245 238 217 225 224 223 203 196 195 188 199 188 140 161 134 112 112 109 106 116 132 114 123 117 224 245 283 260 124 155 248 62 44 46 32 4 42 62 133
111 174 303 359 344 253 284 291 283 285 301 320 321 325 320 319 343 5 8 1 358 352 348 351 343 331 328 331 332 329 326 317 296 178 191 210 229 250 247 232 224 228 241 245 241 246 284 284 278 323 3 350 321 322 349 277 190 171 136 135 127 109 106 106 106 100 115 137 145 200 93 274 92 284 213 95 57 41 51 28 25 24 34 17 7
174 233 137 296 291 307 356 326 350 352 340 328 319 295 314 353 340 7 8 2 353 359 3 358 350 338 346 0 357 352 347 339 337 344 290 222 208 212 217 230 245 239 231 233 244 252 252 247 242 173 147 154 129 220 313 311 308 208 140 127 126 123 129 141 123 131 150 143 193 192 154 197 152 205 177 146 97 82 89 43 21 352 23 22 5
200 280 16 330 324 335 344 4 10 344 345 302 288 335 350 348 7 351 348 352 13 1 6 358 352 0 7 2 355 347 340 338 348 349 344 332 289 221 211 216 234 228 239 244 239 240 238 213 203 201 148 137 138 135 145 207 247 247 137 126 122 122 117 115 121 138 145 180 205 176 159 139 203 178 55 70 81 56 53 64 33 322 349 52 33
152 193 226 269 265 291 6 209 65 321 273 291 337 24 352 349 336 347 331 352 32 14 8 360 357 5 5 1 351 344 338 347 354 347 327 314 311 302 262 229 227 203 218 230 213 158 9 283 198 199 134 124 132 141 146 152 182 216 112 118 122 127 127 116 129 150 166 211 209 188 173 143 136 116 88 55 73 96 82 64 341 260 45 76 33
163 185 211 248 273 269 269 4 220 230 270 258 260 174 229 201 117 352 323 360 20 33 25 355 1 3 3 358 355 347 346 345 340 330 314 292 298 289 281 243 218 209 213 209 171 166 148 181 157 115 110 112 114 109 93 76 70 72 112 138 144 127 123 140 155 174 182 182 204 202 153 128 130 115 113 109 91 71 71 60 351 354 28 91 33
165 150 287 263 286 292 255 254 261 267 260 254 88 261 285 35 27 313 321 66 69 54 31 3 7 14 359 356 1 355 348 344 338 328 322 299 280 273 264 256 230 214 221 223 188 152 147 143 153 120 109 99 100 106 100 92 89 80 71 61 50 79 139 145 168 198 172 184 121 48 107 118 96 91 85 87 57 55 84 29 22 38 37 25 149
168 167 200 216 234 253 265 260 268 288 309 305 296 353 10 10 345 335 333 10 68 72 55 26 8 10 360 356 9 0 347 350 341 332 324 308 292 264 250 248 250 219 213 211 172 155 149 150 157 147 123 127 124 108 105 107 104 98 88 75 63 52 53 77 77 69 21 110 101 81 82 83 72 60 61 58 37 48 29 34 68 29 44 348 32
174 224 244 254 245 228 255 266 269 259 267 293 334 44 313 307 321 335 333 9 94 64 60 38 20 9 349 347 6 9 351 347 339 330 327 319 316 287 242 249 235 227 211 183 153 152 152 157 152 146 135 129 119 118 118 119 118 115 101 81 61 47 37 34 42 62 68 86 101 82 76 99 84 62 38 52 25 77 27 57 15 41 22 19 35
174 218 237 231 233 210 235 265 276 272 254 239 265 17 8 348 5 330 325 326 292 93 64 54 50 7 339 340 350 11 356 347 337 332 333 329 335 344 286 252 257 199 175 169 155 152 150 145 152 139 128 122 120 118 130 130 134 107 81 70 58 36 30 23 27 51 65 82 93 95 65 72 92 73 24 7 47 60 42 70 28 39 359 335 61
181 206 210 219 204 234 269 255 253 270 356 33 33 339 351 29 322 283 289 258 96 86 88 83 49 336 337 344 335 357 354 353 343 337 340 340 339 8 8 37 78 42 80 113 150 144 139 139 140 135 131 132 133 134 164 155 111 101 92 78 67 54 37 20 16 48 70 75 80 83 79 70 74 65 32 25 33 40 2 8 332 298 258 279 109
212 216 208 168 214 217 231 239 265 268 290 346 5 341 31 35 356 345 314 308 104 116 101 98 245 330 13 341 329 334 334 3 350 343 345 348 344 27 26 23 33 84 87 79 32 132 128 131 133 126 116 99 39 97 171 121 106 104 101 93 83 71 59 40 49 65 74 81 84 89 89 91 95 90 77 55 35 358 343 332 290 290 321 281 128
217 196 199 188 196 217 228 242 360 9 1 359 342 11 47 13 330 220 255 250 138 141 122 169 148 302 16 354 347 326 318 1 353 351 346 355 351 30 33 41 33 33 40 66 68 56 88 105 107 110 106 100 81 56 108 115 107 106 105 100 93 88 79 65 58 71 82 89 98 107 111 105 93 81 62 52 40 7 37 87 18 347 329 17 95
213 219 216 189 172 197 227 239 234 307 357 347 41 63 46 18 308 297 307 307 100 96 150 169 63 24 10 342 358 330 312 4 359 357 352 357 350 30 28 46 51 29 38 40 54 58 87 96 107 103 94 96 88 81 127 123 116 113 110 107 104 100 100 101 90 75 80 91 96 98 96 93 89 72 63 53 44 37 56 54 341 3 356 46 41
210 214 202 235 206 179 177 159 37 61 267 278 99 113 79 351 328 314 5 309 61 204 234 156 132 160 77 59 339 327 322 342 354 352 2 359 1 346 40 56 58 39 35 47 42 54 55 53 64 88 107 100 90 83 104 122 116 117 116 111 112 114 122 130 115 112 112 98 99 103 83 97 96 88 75 71 62 54 48 49 18 33 17 7 13
219 194 204 238 250 140 112 119 167 210 284 9 56 114 118 82 284 312 320 283 229 218 205 121 126 102 124 161 210 324 323 337 348 342 5 359 4 345 346 78 79 75 57 68 67 62 65 66 54 60 84 92 88 90 110 125 119 121 121 114 117 126 148 143 142 134 131 130 125 108 108 113 104 112 113 88 70 75 63 44 36 33 31 13 19
204 232 219 227 197 138 130 113 97 101 219 277 309 118 129 120 12 295 285 278 294 52 48 61 97 166 141 111 75 38 357 322 360 356 4 7 4 13 338 67 117 105 105 98 85 83 82 72 63 52 83 88 91 92 104 125 128 128 123 130 136 143 147 145 149 140 117 116 115 117 128 128 136 116 94 82 75 66 74 61 47 45 49 39 30
187 209 223 231 223 137 120 116 128 123 320 271 260 154 136 146 184 254 248 271 287 142 113 180 222 160 141 142 151 140 65 19 303 353 18 9 7 3 5 164 122 146 137 102 88 82 79 70 41 62 83 90 95 93 93 92 90 88 113 124 137 147 135 120 116 119 138 144 145 147 150 158 139 103 92 87 77 67 76 74 53 60 55 74 56
185 218 237 215 103 118 123 125 133 182 180 252 271 204 145 152 179 228 265 246 246 162 186 238 235 196 189 145 138 113 112 72 314 284 42 25 4 35 257 251 236 216 161 106 102 103 85 83 84 86 83 84 92 96 95 93 88 110 115 112 114 117 121 135 148 154 159 164 153 143 137 116 111 113 109 106 85 49 75 70 53 48 65 107 98
200 228 189 120 120 142 137 152 159 168 152 164 265 293 242 162 170 194 178 324 243 185 200 226 229 210 181 148 145 143 120 134 289 296 57 37 17 92 111 133 161 117 110 113 114 117 108 101 103 97 90 85 84 89 91 94 107 107 106 112 109 102 121 149 173 162 135 103 95 98 99 100 102 92 90 88 86 97 101 145 51 79 105 79 172
219 216 144 137 140 150 147 158 168 160 153 178 187 221 270 237 187 178 165 189 223 219 226 223 225 197 119 135 158 138 135 141 242 46 75 64 57 80 87 90 97 107 102 91 99 94 112 122 113 102 101 99 96 89 86 93 101 101 104 109 114 170 206 153 114 96 103 112 109 91 79 74 76 80 90 100 136 126 69 356 183 195 171 205 213
207 178 159 167 180 213 181 162 159 170 176 173 182 192 210 209 222 160 187 189 201 224 247 249 229 151 135 175 160 142 137 170 236 200 92 81 70 74 84 90 89 87 95 103 107 108 114 117 114 114 109 109 100 99 101 100 94 96 94 92 108 260 175 112 122 122 124 125 113 120 117 111 98 98 102 169 178 106 88 45 331 79 19 329 327
157 128 146 166 147 178 216 190 175 174 178 184 202 191 198 204 192 162 185 193 196 221 234 256 240 161 151 155 174 160 155 163 207 180 121 98 98 99 93 95 103 103 100 111 106 109 106 94 90 89 90 87 92 101 105 110 100 82 83 124 238 256 132 135 144 125 111 112 127 131 129 116 114 112 182 246 185 124 113 117 358 22 40 334 319
152 158 156 160 175 180 206 205 194 194 194 179 212 224 198 187 174 167 194 189 193 200 237 247 249 145 154 164 195 162 141 177 203 176 133 130 130 127 122 120 115 116 116 116 108 110 109 109 94 84 87 85 87 86 86 94 120 148 198 186 114 69 76 82 85 90 103 115 114 107 109 126 145 177 207 196 107 123 123 90 58 338 340 295 307
123 124 132 164 208 234 213 179 175 212 211 170 156 43 334 224 156 174 172 182 187 201 222 224 266 156 162 169 183 165 168 171 188 108 101 114 145 156 138 130 130 121 126 126 124 119 107 98 100 103 103 111 111 118 146 177 211 198 139 98 83 81 81 84 84 83 84 92 109 127 130 176 162 162 178 131 118 147 117 113 149 223 288 271 265
134 170 183 196 211 221 230 189 183 198 224 192 132 82 35 25 73 123 84 84 100 90 82 73 327 270 128 73 110 188 157 138 172 91 85 84 84 115 138 129 122 130 136 139 141 132 121 117 118 122 135 142 149 164 177 195 160 107 100 116 117 109 134 147 124 118 138 153 139 181 169 168 147 181 193 135 133 147 129 120 191 180 234 227 294
155 174 183 218 219 210 203 219 211 195 201 233 148 135 115 49 26 74 116 112 106 108 114 131 50 9 107 108 46 48 125 131 102 92 85 79 74 109 124 125 133 143 153 152 166 147 151 143 145 153 167 177 182 187 190 157 137 144 132 143 171 168 186 161 136 120 111 191 168 185 105 329 186 157 118 104 93 38 159 183 194 190 202 159 281
162 177 190 213 173 156 234 240 228 204 179 233 193 153 147 125 89 26 31 107 112 115 112 96 82 65 104 116 120 76 36 112 113 101 96 90 85 97 122 138 146 158 163 130 169 192 168 169 175 174 184 188 192 179 162 147 156 161 154 173 178 144 166 172 134 142 164 173 114 61 146 194 217 125 114 97 99 308 265 145 187 192 120 161 120
165 180 212 216 177 154 192 228 238 241 202 219 225 202 177 150 147 141 65 22 72 113 117 112 99 94 99 114 126 133 140 157 120 113 108 107 102 99 93 90 126 141 121 164 213 260 259 202 190 190 185 190 174 165 172 160 170 165 165 174 157 160 188 136 120 101 106 118 102 181 187 185 203 128 120 130 149 232 192 135 224 181 157 111 81
165 190 230 237 179 153 173 219 239 247 217 234 224 219 207 165 160 155 150 152 134 66 69 96 113 98 93 117 117 119 130 146 127 118 118 117 120 117 106 107 75 63 109 208 281 273 286 257 207 182 186 157 152 151 176 160 174 176 174 178 170 163 180 137 142 142 164 177 195 225 188 182 142 150 173 193 180 165 137 187 180 212 110 98 79
176 187 219 233 194 154 166 189 228 243 215 234 231 216 213 164 145 154 168 175 182 178 174 149 149 134 129 119 127 133 140 136 132 124 125 130 131 141 134 134 152 193 206 254 263 257 263 261 188 153 207 167 155 147 183 168 158 138 122 150 168 157 169 166 168 170 176 189 189 192 195 193 190 181 183 138 126 204 197 158 194 165 110 77 75
187 198 176 198 200 176 162 183 220 227 212 237 223 200 215 157 134 166 169 169 178 183 174 160 149 135 134 133 139 135 133 137 135 126 133 137 152 167 165 172 181 206 219 225 224 231 241 238 145 152 221 153 136 151 174 196 188 151 184 212 182 172 174 187 189 172 179 190 190 175 170 184 164 161 156 152 185 214 190 174 162 94 98 133 107
183 205 183 179 190 187 190 192 215 221 199 236 227 219 223 183 154 165 155 168 173 176 172 139 129 113 105 107 110 103 117 123 117 109 106 108 86 307 244 197 202 210 223 229 223 247 245 262 167 171 199 175 174 167 187 170 195 194 185 198 182 183 160 93 89 87 103 66 65 156 168 174 169 165 168 182 194 173 124 103 104 126 147 126 116
191 205 207 177 178 181 205 206 210 213 185 194 226 222 226 216 168 172 160 170 165 173 160 149 152 156 163 154 162 149 133 122 106 88 83 80 78 216 248 262 275 247 217 229 240 253 240 226 241 197 196 202 176 169 179 202 194 188 171 179 188 184 121 144 154 132 130 140 117 55 345 246 214 183 165 144 138 119 116 122 122 157 145 153 164
193 200 211 159 164 184 197 211 202 204 204 196 218 220 212 219 193 188 171 164 165 176 155 152 167 171 170 151 159 143 140 161 173 169 169 184 189 205 224 239 244 253 274 281 265 250 242 244 194 166 210 180 170 167 174 183 166 161 127 112 108 115 155 174 135 121 148 155 151 178 191 297 59 91 112 116 122 121 127 161 191 172 106 65 13
191 196 157 152 184 175 186 194 203 191 193 200 215 234 222 213 209 199 200 169 166 187 160 163 173 180 168 158 162 162 178 175 183 182 180 186 195 202 209 220 234 249 251 250 252 263 281 275 246 186 202 179 154 132 115 111 97 88 114 149 138 125 132 141 152 156 173 161 154 159 160 121 97 90 88 100 118 125 137 120 96 82 78 85 294
198 192 164 169 197 178 189 216 212 198 188 192 214 220 236 217 216 206 211 208 170 181 186 168 178 174 171 165 167 171 181 181 183 191 190 190 193 198 204 214 220 229 235 248 256 260 254 256 236 190 164 156 136 122 119 85 120 129 124 102 99 106 91 72 73 76 86 90 92 89 91 100 101 100 109 120 108 100 99 108 116 155 190 198 200
198 185 163 174 177 199 204 205 237 205 191 187 199 216 220 217 210 221 214 211 215 180 193 183 178 177 164 164 168 176 182 190 185 192 194 194 195 201 205 214 218 222 232 238 240 238 243 222 193 173 161 150 142 146 157 186 179 135 106 102 120 129 125 125 113 111 107 111 108 105 97 113 116 115 106 99 103 113 117 120 151 159 152 133 116
204 181 166 177 182 191 207 206 201 228 210 199 197 206 222 224 211 206 218 218 221 220 195 197 198 173 164 168 173 177 187 189 193 191 199 197 200 202 205 213 220 223 227 234 239 247 244 192 171 167 159 157 159 161 166 171 158 147 134 143 146 141 152 152 137 122 119 116 109 103 101 104 105 111 125 148 157 151 157 163 162 137 140 187 215
199 186 168 181 183 190 198 215 203 213 235 191 185 190 206 232 226 211 207 215 226 228 228 202 211 182 157 173 172 175 190 190 190 196 200 200 204 207 209 210 213 221 225 233 240 244 243 205 181 171 157 156 162 164 174 173 157 149 148 148 147 143 140 148 141 145 145 135 128 133 134 137 140 147 156 153 138 147 164 168 171 180 185 201 225
201 192 163 182 184 192 194 202 218 209 224 224 185 187 187 205 224 225 209 211 206 223 227 232 210 201 158 166 176 184 190 195 192 195 197 205 210 212 212 211 207 210 217 224 228 231 221 195 176 166 164 159 156 164 172 156 141 140 145 146 151 164 166 161 158 153 150 142 146 154 153 154 159 162 168 164 156 155 174 183 183 194 200 198 177
207 205 166 177 181 187 192 201 207 220 213 219 217 199 190 191 208 223 223 213 209 204 213 229 233 228 168 174 185 191 194 197 198 198 202 203 209 217 218 217 215 208 209 215 216 211 205 188 168 163 162 166 168 183 174 156 148 146 148 158 163 165 169 163 151 147 154 149 153 161 167 165 167 170 174 171 155 131 119 117 113 125 152 184 195
194 205 185 175 179 189 191 197 201 213 223 210 218 231 216 193 199 208 221 222 215 206 207 212 221 229 208 174 188 192 201 201 202 205 207 212 215 220 223 222 210 204 202 204 206 206 197 188 174 165 164 170 183 189 169 153 152 150 152 158 166 152 158 162 152 145 146 145 149 153 159 156 157 150 143 153 156 152 174 189 187 188 183 188 206
203 196 197 187 176 182 193 201 200 188 204 217 219 220 216 213 203 203 211 214 215 217 213 211 214 219 225 204 183 194 198 204 209 211 207 210 222 229 236 244 233 200 193 195 199 195 181 176 175 169 171 179 184 170 160 161 159 158 164 171 169 173 159 150 141 143 142 145 144 144 139 139 138 138 149 161 175 180 177 188 180 181 189 201 208
217 206 197 196 199 195 199 192 194 191 200 213 219 214 211 212 216 209 202 212 211 211 212 218 214 218 219 222 213 190 193 203 209 212 216 216 215 218 228 241 248 240 219 205 192 184 182 178 180 179 178 176 172 164 165 168 164 164 169 176 183 169 155 151 149 157 146 144 141 141 140 149 156 162 160 149 141 129 136 150 169 199 223 225 223
212 212 205 196 191 195 206 209 196 201 199 203 213 217 210 212 214 218 215 206 213 210 209 210 220 217 216 216 216 220 210 199 202 208 209 212 217 219 217 219 230 241 235 217 195 181 183 183 178 180 180 184 170 167 166 173 171 169 161 164 163 158 154 152 147 145 146 149 147 148 149 152 156 153 152 152 156 163 178 188 186 194 199 212 222
202 217 214 188 184 194 202 213 211 204 201 202 205 214 214 210 212 213 219 219 212 210 209 208 209 215 220 218 217 214 215 222 220 210 204 205 207 213 215 213 212 223 230 227 204 190 188 185 181 178 179 180 170 167 170 170 176 170 154 152 155 154 148 146 148 153 147 143 147 148 154 156 158 158 166 167 177 180 185 187 191 190 197 197 202